WA6MHA-11 Weather Reports


time (UTC)temp
C
wind
direction
speed
KPH
gust
KPH
rain 1hr
cm
rain 24hr
cm
rain mn
cm
humidity
%
barometer
mb
20260505055735 14 288 3.2 4.8 0.00 0.00 0.00 50 1015.9
20260505055332 14 292 3.2 3.2 0.00 0.00 0.00 50 1015.9
20260505054132 14 265 1.6 1.6 0.00 0.00 0.00 49 1016.0
20260505053731 14 270 1.6 3.2 0.00 0.00 0.00 49 1016.0
20260505053326 14 279 3.2 4.8 0.00 0.00 0.00 49 1016.1
20260505052925 14 267 1.6 3.2 0.00 0.00 0.00 49 1015.9
20260505052524 14 310 1.6 3.2 0.00 0.00 0.00 49 1016.1
20260505052122 14 270 0.0 0.0 0.00 0.00 0.00 49 1016.0
20260505051721 14 303 0.0 1.6 0.00 0.00 0.00 49 1016.0
20260505050517 14 267 1.6 3.2 0.00 0.00 0.00 48 1016.1
20260505041709 15 175 3.2 6.4 0.00 0.00 0.00 46 1016.1
20260505040459 15 119 0.0 8.0 0.00 0.00 0.00 46 1016.1
20260505040058 15 221 4.8 9.7 0.00 0.00 0.00 46 1016.0
20260505035655 15 164 3.2 4.8 0.00 0.00 0.00 46 1016.0
20260505034853 15 115 3.2 8.0 0.00 0.00 0.00 45 1016.0
20260505034452 15 180 3.2 8.0 0.00 0.00 0.00 45 1016.0
20260505033253 15 112 3.2 6.4 0.00 0.00 0.00 44 1015.9
20260505032848 15 218 4.8 6.4 0.00 0.00 0.00 44 1015.9
20260505031241 16 140 1.6 3.2 0.00 0.00 0.00 42 1015.7
20260505030840 16 148 1.6 4.8 0.00 0.00 0.00 42 1015.6
20260505030438 16 135 1.6 6.4 0.00 0.00 0.00 42 1015.5
20260505030051 16 177 3.2 8.0 0.00 0.00 0.00 42 1015.5
20260505025637 16 213 4.8 6.4 0.00 0.00 0.00 41 1015.4
20260505025235 16 191 3.2 8.0 0.00 0.00 0.00 41 1015.3
20260505024834 17 182 4.8 4.8 0.00 0.00 0.00 41 1015.3
20260505024432 17 225 3.2 4.8 0.00 0.00 0.00 40 1015.3
20260505024031 17 213 1.6 6.4 0.00 0.00 0.00 40 1015.3
20260505022024 17 225 4.8 8.0 0.00 0.00 0.00 38 1015.1
20260505021222 17 227 6.4 11.3 0.00 0.00 0.00 37 1015.2
20260505020821 18 85 4.8 11.3 0.00 0.00 0.00 36 1015.1
20260505020017 18 253 3.2 9.7 0.00 0.00 0.00 36 1.0
20260505020015 18 253 3.2 9.7 0.00 0.00 0.00 36 1015.1
20260505015612 19 220 4.8 12.9 0.00 0.00 0.00 36 1015.1
20260505015210 19 190 1.6 4.8 0.00 0.00 0.00 36 1015.1
20260505014810 19 274 4.8 8.0 0.00 0.00 0.00 36 1015.0
20260505013607 19 255 4.8 6.4 0.00 0.00 0.00 36 1015.0
20260505012805 19 270 6.4 8.0 0.00 0.00 0.00 35 1015.2
20260505011959 18 165 1.6 14.5 0.00 0.00 0.00 34 1015.2
20260505011158 19 232 11.3 14.5 0.00 0.00 0.00 33 1015.3
20260505010755 19 202 14.5 16.1 0.00 0.00 0.00 33 1015.3
20260505005552 19 233 6.4 12.9 0.00 0.00 0.00 33 1015.4
20260505005153 20 270 9.7 12.9 0.00 0.00 0.00 33 1015.4
20260505004750 20 260 3.2 14.5 0.00 0.00 0.00 32 1015.2
20260505003946 20 235 9.7 14.5 0.00 0.00 0.00 32 1015.3
20260505002745 21 219 8.0 14.5 0.00 0.00 0.00 31 1015.3
20260505001940 21 279 8.0 17.7 0.00 0.00 0.00 31 1015.3
20260505001538 22 288 6.4 12.9 0.00 0.00 0.00 30 1015.3
20260505000747 22 272 4.8 17.7 0.00 0.00 0.00 31 1015.1
20260505000745 22 272 4.8 17.7 0.00 0.00 0.00 31 1015.1
20260505000336 22 244 9.7 14.5 0.00 0.00 0.00 30 1015.1
20260504235134 23 273 3.2 27.4 0.00 0.00 0.00 30 1015.1
20260504234730 23 219 9.7 20.9 0.00 0.00 0.00 30 1015.2
20260504234334 23 274 19.3 29.0 0.00 0.00 0.00 30 1015.1
20260504233526 23 283 24.1 24.1 0.00 0.00 0.00 30 1015.1
20260504233136 23 292 12.9 19.3 0.00 0.00 0.00 30 1015.2
20260504232723 23 230 17.7 33.8 0.00 0.00 0.00 31 1015.1
20260504231921 22 196 11.3 19.3 0.00 0.00 0.00 30 1015.1
20260504231520 22 205 12.9 20.9 0.00 0.00 0.00 30 1015.1
20260504231118 22 173 8.0 17.7 0.00 0.00 0.00 30 1015.3
20260504230716 22 135 4.8 14.5 0.00 0.00 0.00 29 1015.3
20260504230315 22 272 6.4 14.5 0.00 0.00 0.00 29 1015.3
20260504225953 22 295 8.0 19.3 0.00 0.00 0.00 29 1015.4
20260504225914 22 295 8.0 19.3 0.00 0.00 0.00 29 1015.4
20260504225112 23 220 11.3 16.1 0.00 0.00 0.00 29 1015.4
20260504224716 23 274 6.4 12.9 0.00 0.00 0.00 29 1015.5
20260504224313 23 221 9.7 17.7 0.00 0.00 0.00 29 1015.6
20260504223506 23 220 14.5 25.7 0.00 0.00 0.00 29 1015.6
20260504223105 23 255 12.9 17.7 0.00 0.00 0.00 29 1015.6
20260504222704 23 279 12.9 37.0 0.00 0.00 0.00 30 1015.5
20260504221907 22 270 4.8 20.9 0.00 0.00 0.00 30 1015.7
20260504221059 23 200 22.5 22.5 0.00 0.00 0.00 30 1015.6
20260504220704 24 202 11.3 16.1 0.00 0.00 0.00 29 1015.7
20260504220301 24 173 11.3 14.5 0.00 0.00 0.00 30 1015.7
20260504215901 24 190 4.8 20.9 0.00 0.00 0.00 30 1015.8
20260504215458 23 202 14.5 24.1 0.00 0.00 0.00 30 1015.9
20260504214251 22 180 4.8 19.3 0.00 0.00 0.00 30 1016.0
20260504213454 23 121 9.7 14.5 0.00 0.00 0.00 30 1016.1
20260504213051 23 267 9.7 20.9 0.00 0.00 0.00 30 1016.1
20260504212250 22 90 8.0 17.7 0.00 0.00 0.00 30 1016.1
20260504211842 22 103 6.4 16.1 0.00 0.00 0.00 30 1016.1
20260504211441 22 216 12.9 17.7 0.00 0.00 0.00 31 1016.0
20260504211040 22 187 4.8 12.9 0.00 0.00 0.00 31 1016.2
20260504210638 22 202 8.0 17.7 0.00 0.00 0.00 30 1016.2
20260504210237 23 225 11.3 14.5 0.00 0.00 0.00 31 1016.0
20260504205835 23 197 12.9 14.5 0.00 0.00 0.00 32 1016.0
20260504205446 22 199 8.0 16.1 0.00 0.00 0.00 31 1016.0
20260504205037 22 195 12.9 12.9 0.00 0.00 0.00 32 1016.0
20260504204634 21 221 3.2 16.1 0.00 0.00 0.00 31 1015.9
20260504204230 22 152 8.0 14.5 0.00 0.00 0.00 31 1016.1
20260504203829 22 163 8.0 9.7 0.00 0.00 0.00 31 1016.0
20260504203428 22 186 12.9 14.5 0.00 0.00 0.00 30 1016.1
20260504202626 22 264 1.6 6.4 0.00 0.00 0.00 31 1016.0
20260504201822 22 294 6.4 12.9 0.00 0.00 0.00 31 1016.0
20260504201421 22 182 3.2 12.9 0.00 0.00 0.00 30 1016.1
20260504200619 23 270 6.4 12.9 0.00 0.00 0.00 31 1016.1
20260504200219 22 186 8.0 8.0 0.00 0.00 0.00 30 1016.1
20260504195817 22 225 1.6 16.1 0.00 0.00 0.00 30 1016.1
20260504195013 23 265 6.4 9.7 0.00 0.00 0.00 31 1016.2
20260504194613 23 119 8.0 9.7 0.00 0.00 0.00 31 1016.1
20260504194212 24 232 4.8 6.4 0.00 0.00 0.00 31 1016.1
20260504193810 23 99 1.6 11.3 0.00 0.00 0.00 31 1016.2
20260504193409 23 220 11.3 11.3 0.00 0.00 0.00 31 1016.2
20260504192606 22 180 3.2 14.5 0.00 0.00 0.00 32 1016.3
20260504191001 22 128 12.9 12.9 0.00 0.00 0.00 32 1016.4
20260504190600 22 296 3.2 6.4 0.00 0.00 0.00 32 1016.4
20260504185757 23 331 3.2 6.4 0.00 0.00 0.00 32 1016.3
20260504185356 22 135 1.6 11.3 0.00 0.00 0.00 33 1016.5
20260504184955 22 166 8.0 8.0 0.00 0.00 0.00 33 1016.6
20260504184555 22 173 1.6 11.3 0.00 0.00 0.00 34 1016.6
20260504184152 22 135 11.3 11.3 0.00 0.00 0.00 34 1016.5
20260504183751 -17 166 3.2 9.7 0.00 0.00 0.00
20260504183352 22 182 3.2 9.7 0.00 0.00 0.00 34 1016.6
20260504182948 22 192 3.2 9.7 0.00 0.00 0.00 34 1016.6
20260504182547 22 184 9.7 11.3 0.00 0.00 0.00 34 1016.6
20260504182151 22 175 4.8 11.3 0.00 0.00 0.00 34 1016.7
20260504181748 21 197 3.2 11.3 0.00 0.00 0.00 34 1016.6
20260504181347 21 186 6.4 14.5 0.00 0.00 0.00 34 1016.7
20260504180942 21 175 4.8 9.7 0.00 0.00 0.00 34 1016.7
20260504180140 22 191 4.8 12.9 0.00 0.00 0.00 35 1016.6
20260504175738 22 128 12.9 12.9 0.00 0.00 0.00 35 1016.5
20260504175336 22 185 6.4 8.0 0.00 0.00 0.00 35 1016.5
20260504174938 21 92 1.6 6.4 0.00 0.00 0.00 35 1016.5
20260504174534 21 175 3.2 6.4 0.00 0.00 0.00 35 1016.6
20260504174133 21 92 0.0 8.0 0.00 0.00 0.00 35 1016.5
20260504173731 21 177 1.6 4.8 0.00 0.00 0.00 34 1016.5
20260504173330 20 180 1.6 3.2 0.00 0.00 0.00 34 1016.5
20260504172928 20 135 3.2 4.8 0.00 0.00 0.00 34 1016.5
20260504172529 20 177 1.6 4.8 0.00 0.00 0.00 34 1016.5
20260504172126 21 180 1.6 3.2 0.00 0.00 0.00 33 1016.4
20260504171725 21 168 0.0 6.4 0.00 0.00 0.00 33 1016.5
20260504171324 20 347 1.6 4.8 0.00 0.00 0.00 33 1016.4
20260504170923 20 184 1.6 3.2 0.00 0.00 0.00 33 1016.4
20260504170521 20 186 3.2 3.2 0.00 0.00 0.00 32 1016.4
20260504150845 16 279 6.4 6.4 0.00 0.00 0.00 51 1016.2
20260504150443 15 292 6.4 9.7 0.00 0.00 0.00 1 1016.2
20260504141228 13 263 1.6 3.2 0.00 0.00 0.00 57 1015.9
20260504140828 12 225 0.0 1.6 0.00 0.00 0.00 57 1016.0
20260504130805 12 283 0.0 0.0 0.00 0.00 0.00 55 1015.7
20260504130405 12 270 0.0 0.0 0.00 0.00 0.00 55 1015.7
20260504110327 12 274 0.0 0.0 0.00 0.00 0.00 54 1015.5
20260504081835 13 324 0.0 0.0 0.00 0.00 0.00 53 1016.4
20260504081431 13 270 0.0 0.0 0.00 0.00 0.00 53 1016.6
20260504081030 13 283 0.0 0.0 0.00 0.00 0.00 53 1016.6
20260504080629 13 279 0.0 1.6 0.00 0.00 0.00 53 1016.5
20260504080228 13 85 0.0 0.0 0.00 0.00 0.00 53 1016.3
20260504070210 13 288 1.6 4.8 0.00 0.00 0.00 53 1016.3
20260504070208 13 288 1.6 4.8 0.00 0.00 0.00 53 1016.3